Time,TemperatureF,DewpointF,PressureIn,WindDirection,WindDirectionDegrees,WindSpeedMPH,WindSpeedGustMPH,Humidity,HourlyPrecipIn,Conditions,Clouds,dailyrainin,SoftwareType,DateUTC
2013-07-08 00:01:00,81.0,65.0,29.90,South,190,2.0,8.0,59,0.00,,,0.01,,2013-07-08 05:01:00,
2013-07-08 00:12:00,81.0,65.0,29.90,SSW,200,3.0,8.0,59,0.00,,,0.01,,2013-07-08 05:12:00,
2013-07-08 00:22:00,81.0,65.0,29.90,SSW,208,3.0,7.0,58,0.00,,,0.01,,2013-07-08 05:22:00,
2013-07-08 00:33:00,81.0,64.0,29.90,SSW,197,4.0,10.0,57,0.00,,,0.01,,2013-07-08 05:33:00,
2013-07-08 00:43:00,81.0,64.0,29.90,SSW,203,3.0,7.0,57,0.00,,,0.01,,2013-07-08 05:43:00,
2013-07-08 00:53:00,81.0,64.0,29.90,SW,215,0.0,6.0,56,0.00,,,0.00,,2013-07-08 05:53:00,
2013-07-08 01:01:00,81.0,64.0,29.91,South,174,2.0,8.0,56,0.00,,,0.00,,2013-07-08 06:01:00,
2013-07-08 01:12:00,81.0,63.0,29.91,SSE,162,2.0,7.0,55,0.00,,,0.00,,2013-07-08 06:12:00,
2013-07-08 01:22:00,81.0,63.0,29.91,SSE,166,2.0,6.0,55,0.00,,,0.00,,2013-07-08 06:22:00,
2013-07-08 01:33:00,81.0,63.0,29.91,South,190,3.0,6.0,54,0.00,,,0.00,,2013-07-08 06:33:00,
2013-07-08 01:43:00,81.0,63.0,29.91,SSW,209,3.0,8.0,54,0.00,,,0.00,,2013-07-08 06:43:00,
2013-07-08 01:53:00,81.0,62.0,29.91,SW,219,3.0,9.0,53,0.00,,,0.00,,2013-07-08 06:53:00,
2013-07-08 02:02:00,81.0,62.0,29.90,SSW,210,3.0,10.0,53,0.00,,,0.00,,2013-07-08 07:02:00,
2013-07-08 02:12:00,81.0,62.0,29.90,SSW,208,3.0,10.0,53,0.00,,,0.00,,2013-07-08 07:12:00,
2013-07-08 02:22:00,81.0,63.0,29.90,SSW,196,1.0,7.0,54,0.00,,,0.00,,2013-07-08 07:22:00,
2013-07-08 02:34:00,81.0,62.0,29.90,SSW,192,3.0,6.0,53,0.00,,,0.00,,2013-07-08 07:34:00,
2013-07-08 02:44:00,81.0,62.0,29.90,SSW,211,1.0,6.0,53,0.00,,,0.00,,2013-07-08 07:44:00,
2013-07-08 02:53:00,81.0,63.0,29.90,SSW,192,2.0,7.0,54,0.00,,,0.00,,2013-07-08 07:53:00,
2013-07-08 03:02:00,81.0,63.0,29.90,SSW,197,3.0,6.0,54,0.00,,,0.00,,2013-07-08 08:02:00,
2013-07-08 03:12:00,81.0,63.0,29.90,SSW,207,3.0,9.0,54,0.00,,,0.00,,2013-07-08 08:12:00,
2013-07-08 03:22:00,81.0,63.0,29.90,SSW,196,2.0,6.0,54,0.00,,,0.00,,2013-07-08 08:22:00,
2013-07-08 03:33:00,81.0,63.0,29.90,SSW,196,2.0,4.0,54,0.00,,,0.00,,2013-07-08 08:33:00,
2013-07-08 03:42:00,80.0,62.0,29.90,SW,223,2.0,6.0,55,0.00,,,0.00,,2013-07-08 08:42:00,
2013-07-08 03:53:00,80.0,62.0,29.90,South,191,2.0,6.0,55,0.00,,,0.00,,2013-07-08 08:53:00,
2013-07-08 04:01:00,80.0,62.0,29.90,SSW,201,3.0,7.0,55,0.00,,,0.00,,2013-07-08 09:01:00,
2013-07-08 04:11:00,81.0,63.0,29.90,SSW,207,2.0,7.0,55,0.00,,,0.00,,2013-07-08 09:11:00,
2013-07-08 04:22:00,81.0,63.0,29.90,SW,219,3.0,10.0,55,0.00,,,0.00,,2013-07-08 09:22:00,
2013-07-08 04:34:00,81.0,63.0,29.90,South,189,3.0,8.0,55,0.00,,,0.00,,2013-07-08 09:34:00,
2013-07-08 04:43:00,81.0,64.0,29.90,SSW,199,2.0,8.0,56,0.00,,,0.00,,2013-07-08 09:43:00,
2013-07-08 04:52:00,81.0,64.0,29.90,South,189,2.0,6.0,57,0.00,,,0.00,,2013-07-08 09:52:00,
2013-07-08 05:02:00,80.0,64.0,29.90,SW,214,2.0,7.0,59,0.00,,,0.00,,2013-07-08 10:02:00,
2013-07-08 05:11:00,80.0,65.0,29.89,South,171,2.0,4.0,60,0.00,,,0.00,,2013-07-08 10:11:00,
2013-07-08 05:22:00,79.0,65.0,29.90,South,172,2.0,5.0,62,0.00,,,0.00,,2013-07-08 10:22:00,
2013-07-08 05:34:00,79.0,65.0,29.91,SW,219,1.0,6.0,63,0.00,,,0.00,,2013-07-08 10:34:00,
2013-07-08 05:43:00,78.0,65.0,29.92,West,263,3.0,5.0,65,0.00,,,0.00,,2013-07-08 10:43:00,
2013-07-08 05:53:00,78.0,67.0,29.92,NW,317,2.0,4.0,68,0.00,,,0.00,,2013-07-08 10:53:00,
2013-07-08 06:02:00,77.0,66.0,29.92,NW,317,0.0,2.0,70,0.00,,,0.00,,2013-07-08 11:02:00,
2013-07-08 06:11:00,76.0,66.0,29.92,NW,317,0.0,0.0,72,0.00,,,0.00,,2013-07-08 11:11:00,
2013-07-08 06:23:00,76.0,67.0,29.92,NW,317,0.0,0.0,74,0.00,,,0.00,,2013-07-08 11:23:00,
2013-07-08 06:33:00,76.0,67.0,29.92,NW,317,0.0,0.0,75,0.00,,,0.00,,2013-07-08 11:33:00,
2013-07-08 06:43:00,75.0,67.0,29.92,NW,317,0.0,0.0,76,0.00,,,0.00,,2013-07-08 11:43:00,
2013-07-08 06:53:00,75.0,67.0,29.92,NW,317,0.0,2.0,76,0.00,,,0.00,,2013-07-08 11:53:00,
2013-07-08 07:01:00,75.0,67.0,29.93,NW,317,0.0,0.0,76,0.00,,,0.00,,2013-07-08 12:01:00,
2013-07-08 07:11:00,75.0,67.0,29.93,NW,317,0.0,2.0,75,0.00,,,0.00,,2013-07-08 12:11:00,
2013-07-08 07:22:00,76.0,67.0,29.93,NW,317,2.0,4.0,75,0.00,,,0.00,,2013-07-08 12:22:00,
2013-07-08 07:34:00,76.0,67.0,29.93,NW,317,1.0,2.0,75,0.00,,,0.00,,2013-07-08 12:34:00,
2013-07-08 07:43:00,76.0,67.0,29.94,NW,317,0.0,1.0,74,0.00,,,0.00,,2013-07-08 12:43:00,
2013-07-08 07:53:00,76.0,67.0,29.94,NW,317,0.0,0.0,74,0.00,,,0.00,,2013-07-08 12:53:00,
2013-07-08 08:02:00,76.0,67.0,29.94,NW,317,0.0,0.0,74,0.00,,,0.00,,2013-07-08 13:02:00,
2013-07-08 08:11:00,76.0,67.0,29.94,NW,317,0.0,0.0,75,0.00,,,0.00,,2013-07-08 13:11:00,
2013-07-08 08:22:00,76.0,67.0,29.94,NW,317,0.0,0.0,75,0.00,,,0.00,,2013-07-08 13:22:00,
2013-07-08 08:33:00,76.0,67.0,29.95,NW,317,0.0,0.0,74,0.00,,,0.00,,2013-07-08 13:33:00,
2013-07-08 08:42:00,76.0,67.0,29.95,NW,317,1.0,1.0,74,0.00,,,0.00,,2013-07-08 13:42:00,
2013-07-08 08:53:00,76.0,67.0,29.95,NW,317,1.0,2.0,74,0.00,,,0.00,,2013-07-08 13:53:00,
2013-07-08 09:02:00,76.0,67.0,29.95,NW,317,0.0,0.0,75,0.00,,,0.00,,2013-07-08 14:02:00,
2013-07-08 09:12:00,76.0,67.0,29.95,NW,317,0.0,0.0,75,0.00,,,0.00,,2013-07-08 14:12:00,
2013-07-08 09:22:00,76.0,68.0,29.96,NW,317,0.0,0.0,76,0.00,,,0.00,,2013-07-08 14:22:00,
2013-07-08 09:34:00,76.0,68.0,29.96,NW,317,0.0,0.0,77,0.00,,,0.00,,2013-07-08 14:34:00,
2013-07-08 09:43:00,77.0,69.0,29.96,NW,317,0.0,0.0,76,0.00,,,0.00,,2013-07-08 14:43:00,
2013-07-08 09:53:00,77.0,69.0,29.96,NW,317,0.0,2.0,76,0.00,,,0.00,,2013-07-08 14:53:00,
2013-07-08 10:02:00,77.0,68.0,29.96,NW,317,0.0,0.0,74,0.00,,,0.00,,2013-07-08 15:02:00,
2013-07-08 10:11:00,78.0,69.0,29.97,NW,317,0.0,0.0,74,0.00,,,0.00,,2013-07-08 15:11:00,
2013-07-08 10:22:00,79.0,69.0,29.96,NW,317,0.0,0.0,72,0.00,,,0.00,,2013-07-08 15:22:00,
2013-07-08 10:33:00,80.0,70.0,29.97,NW,317,1.0,1.0,71,0.00,,,0.00,,2013-07-08 15:33:00,
2013-07-08 10:43:00,81.0,70.0,29.96,NW,317,1.0,2.0,70,0.00,,,0.00,,2013-07-08 15:43:00,
2013-07-08 10:53:00,82.0,70.0,29.97,South,186,0.0,6.0,68,0.00,,,0.00,,2013-07-08 15:53:00,
2013-07-08 11:01:00,83.0,70.0,29.96,South,186,1.0,2.0,66,0.00,,,0.00,,2013-07-08 16:01:00,
2013-07-08 11:11:00,83.0,70.0,29.96,South,186,2.0,5.0,64,0.00,,,0.00,,2013-07-08 16:11:00,
2013-07-08 11:22:00,84.0,69.0,29.96,SW,220,3.0,5.0,60,0.00,,,0.00,,2013-07-08 16:22:00,
2013-07-08 11:33:00,84.0,70.0,29.97,West,268,0.0,8.0,62,0.00,,,0.00,,2013-07-08 16:33:00,
2013-07-08 11:54:00,84.0,69.0,29.97,SSW,212,2.0,5.0,61,0.00,,,0.00,,2013-07-08 16:54:00,
2013-07-08 12:07:00,84.0,69.0,29.97,SSW,212,2.0,3.0,60,0.00,,,0.00,,2013-07-08 17:07:00,
2013-07-08 12:14:00,84.0,69.0,29.97,SW,233,1.0,6.0,60,0.00,,,0.00,,2013-07-08 17:14:00,
2013-07-08 12:37:00,86.0,69.0,29.96,SSW,212,2.0,6.0,58,0.00,,,0.00,,2013-07-08 17:37:00,
2013-07-08 12:45:00,87.0,70.0,29.95,SSW,211,3.0,6.0,57,0.00,,,0.00,,2013-07-08 17:45:00,
2013-07-08 12:54:00,89.0,70.0,29.95,SSW,201,3.0,6.0,54,0.00,,,0.00,,2013-07-08 17:54:00,
2013-07-08 13:07:00,90.0,71.0,29.95,South,186,4.0,8.0,53,0.00,,,0.00,,2013-07-08 18:07:00,
2013-07-08 13:21:00,89.0,70.0,29.95,SSW,200,2.0,5.0,53,0.00,,,0.00,,2013-07-08 18:21:00,
2013-07-08 13:32:00,89.0,70.0,29.95,SSW,200,2.0,5.0,53,0.00,,,0.00,,2013-07-08 18:32:00,
2013-07-08 13:41:00,88.0,70.0,29.95,SSW,199,0.0,4.0,56,0.00,,,0.00,,2013-07-08 18:41:00,
2013-07-08 13:56:00,88.0,69.0,29.95,West,281,4.0,5.0,54,0.00,,,0.00,,2013-07-08 18:56:00,
2013-07-08 14:10:00,89.0,71.0,29.94,West,274,4.0,5.0,55,0.00,,,0.00,,2013-07-08 19:10:00,
2013-07-08 14:19:00,89.0,70.0,29.94,West,271,0.0,4.0,53,0.00,,,0.00,,2013-07-08 19:19:00,
2013-07-08 14:50:00,91.0,70.0,29.94,WNW,283,2.0,6.0,50,0.00,,,0.00,,2013-07-08 19:50:00,
2013-07-08 15:19:00,93.0,70.0,29.94,SW,219,1.0,5.0,47,0.00,,,0.00,,2013-07-08 20:19:00,
2013-07-08 15:41:00,92.0,70.0,29.94,WSW,241,2.0,2.0,49,0.00,,,0.00,,2013-07-08 20:41:00,
2013-07-08 15:49:00,91.0,70.0,29.94,SSW,194,1.0,4.0,50,0.00,,,0.00,,2013-07-08 20:49:00,
2013-07-08 15:58:00,91.0,71.0,29.94,SSW,194,0.0,0.0,53,0.00,,,0.00,,2013-07-08 20:58:00,
2013-07-08 16:12:00,90.0,71.0,29.93,SSW,194,0.0,2.0,53,0.00,,,0.00,,2013-07-08 21:12:00,
2013-07-08 16:40:00,88.0,72.0,29.93,SSE,162,1.0,4.0,60,0.00,,,0.00,,2013-07-08 21:40:00,
2013-07-08 16:59:00,87.0,72.0,29.93,SE,145,2.0,4.0,61,0.00,,,0.00,,2013-07-08 21:59:00,
2013-07-08 17:13:00,88.0,73.0,29.93,SE,133,0.0,6.0,62,0.00,,,0.00,,2013-07-08 22:13:00,
2013-07-08 17:58:00,90.0,74.0,29.92,SE,128,0.0,3.0,60,0.00,,,0.00,,2013-07-08 22:58:00,
2013-07-08 18:19:00,90.0,73.0,29.92,South,178,2.0,6.0,58,0.00,,,0.00,,2013-07-08 23:19:00,
2013-07-08 18:30:00,90.0,73.0,29.92,SE,137,1.0,6.0,58,0.00,,,0.00,,2013-07-08 23:30:00,
2013-07-08 18:42:00,90.0,72.0,29.92,SSE,153,3.0,7.0,56,0.00,,,0.00,,2013-07-08 23:42:00,
2013-07-08 19:30:00,89.0,73.0,29.92,SE,139,0.0,4.0,59,0.00,,,0.00,,2013-07-09 00:30:00,
2013-07-08 19:42:00,88.0,72.0,29.91,SE,138,3.0,4.0,60,0.00,,,0.00,,2013-07-09 00:42:00,
2013-07-08 19:58:00,87.0,73.0,29.91,SE,138,0.0,4.0,63,0.00,,,0.00,,2013-07-09 00:58:00,
2013-07-08 20:11:00,87.0,74.0,29.91,SE,139,0.0,1.0,65,0.00,,,0.00,,2013-07-09 01:11:00,
2013-07-08 20:32:00,86.0,74.0,29.91,SE,139,1.0,3.0,67,0.00,,,0.00,,2013-07-09 01:32:00,
2013-07-08 21:24:00,-999.0,-99.9,29.91,SE,138,2.0,5.0,67,0.00,,,0.00,,2013-07-09 02:24:00,
2013-07-08 21:29:00,85.0,73.0,29.92,SE,135,2.0,5.0,67,0.00,,,0.00,,2013-07-09 02:29:00,
2013-07-08 21:52:00,83.0,71.0,29.91,SSE,149,2.0,6.0,67,0.00,,,0.00,,2013-07-09 02:52:00,
2013-07-08 22:12:00,83.0,70.0,29.92,SE,142,3.0,5.0,65,0.00,,,0.00,,2013-07-09 03:12:00,
2013-07-08 22:21:00,83.0,70.0,29.93,SE,143,2.0,5.0,65,0.00,,,0.00,,2013-07-09 03:21:00,
2013-07-08 22:52:00,83.0,70.0,29.93,SE,144,0.0,4.0,65,0.00,,,0.00,,2013-07-09 03:52:00,
2013-07-08 23:02:00,83.0,70.0,29.94,SSW,197,1.0,5.0,65,0.00,,,0.00,,2013-07-09 04:02:00,
2013-07-08 23:11:00,83.0,70.0,29.93,SSE,149,1.0,7.0,65,0.00,,,0.00,,2013-07-09 04:11:00,
2013-07-08 23:22:00,83.0,70.0,29.93,SSE,149,1.0,7.0,65,0.00,,,0.00,,2013-07-09 04:22:00,
2013-07-08 23:34:00,82.0,69.0,29.93,South,188,3.0,6.0,65,0.00,,,0.00,,2013-07-09 04:34:00,
2013-07-08 23:42:00,82.0,69.0,29.92,SSW,205,0.0,6.0,66,0.00,,,0.00,,2013-07-09 04:42:00,
2013-07-08 23:53:00,81.0,69.0,29.92,SSW,205,0.0,1.0,67,0.00,,,0.00,,2013-07-09 04:53:00,